Temperature
21 22 22 23 23 21 21 20 20 20 20 20 19 19 19 19 19 19 19 19 19 19 19 19 19 18 18 18 18 18 18 17 17 17 16 16 16 15 15 15 15 14 14 14
22 22 23 23 22 22 21 21 20 20 20 19 19 19 18 19 18 18 18 19 19 18 18 18 18 18 18 18 18 17 17 17 17 16 16 16 16 15 15 15 14 14 14 14
20 21 22 22 22 22 21 21 20 21 20 19 18 18 18 18 18 19 19 19 19 18 18 18 18 18 18 18 17 17 17 17 16 16 16 16 15 15 15 15 14 14 14 14
18 21 22 21 21 21 21 21 20 20 19 18 18 19 19 19 19 19 19 19 19 19 18 18 18 18 17 17 17 17 16 16 16 16 15 15 15 15 14 14 14 14 14 13
17 19 20 21 21 20 20 20 20 19 18 18 19 19 18 19 19 20 20 20 19 19 18 18 18 18 17 17 16 16 16 16 16 16 15 15 15 15 14 14 14 14 13 13
16 19 20 20 20 20 20 20 19 18 18 18 18 17 17 19 19 20 20 19 19 19 18 18 18 17 17 17 16 16 16 16 15 15 15 15 15 14 14 14 13 13 13 13
17 18 18 19 18 20 20 20 19 18 18 18 17 18 19 19 19 19 19 19 19 18 18 18 18 17 17 17 16 16 15 15 15 15 15 15 14 14 14 13 13 13 13 13
15 17 18 17 18 18 18 18 19 19 19 18 18 19 19 19 19 19 18 18 18 18 18 17 17 17 16 16 16 16 15 15 15 14 14 14 14 14 14 13 13 13 13 13
15 16 16 16 16 17 17 18 18 19 19 19 18 18 18 18 18 18 18 18 18 18 17 17 17 16 16 16 16 15 15 15 14 14 14 14 14 14 13 13 13 13 12 12
14 15 15 16 17 17 18 18 19 19 19 19 19 18 18 18 18 18 18 18 18 17 17 16 16 16 16 16 15 15 15 14 14 14 14 14 13 13 13 13 13 12 12 12
14 14 15 16 17 17 18 18 19 19 19 19 19 18 18 18 17 17 17 17 17 17 17 16 16 16 15 15 15 15 14 14 14 14 13 13 13 13 13 12 12 12 12 12
14 15 14 16 17 17 18 18 18 18 18 18 18 18 18 18 17 17 17 17 17 16 16 16 15 15 15 15 15 14 14 14 14 13 13 13 13 12 12 12 12 12 12 12
16 16 16 16 17 17 17 17 17 18 18 18 17 18 17 17 17 16 16 16 16 16 16 15 15 15 15 14 14 14 14 14 13 13 13 12 12 12 12 12 12 12 11 11
16 16 16 16 16 17 17 17 17 17 17 17 17 17 17 17 16 16 16 16 16 15 15 15 15 15 15 14 14 14 14 13 13 13 12 12 12 12 12 12 12 12 11 11
16 16 16 16 16 17 17 17 16 17 17 16 16 16 16 16 16 16 15 15 15 15 15 15 15 14 14 14 14 13 13 13 13 12 12 12 12 12 12 12 11 11 11 11
15 15 15 15 16 16 16 16 16 16 16 16 16 16 16 16 16 15 15 15 15 15 15 15 14 14 14 13 13 13 13 13 12 12 12 12 12 12 12 11 11 11 11 11
14 14 15 15 15 15 15 16 16 16 16 16 16 16 16 15 15 15 15 15 15 15 15 14 14 14 14 13 13 13 13 12 12 12 12 12 12 12 11 11 11 11 11 11
14 15 15 15 15 15 15 15 15 15 15 15 15 15 15 15 15 15 15 14 14 14 14 14 14 14 13 13 13 13 13 12 12 12 12 11 11 11 11 11 11 11 11 11
14 14 14 14 14 15 15 15 15 15 15 15 15 14 14 14 14 14 14 14 14 14 14 14 14 13 13 13 13 13 12 12 12 12 12 11 11 11 11 11 11 11 11 11
14 14 14 14 14 14 14 14 14 14 14 14 14 14 14 14 14 14 14 14 13 14 14 13 13 13 13 13 13 12 12 12 12 11 11 11 11 11 11 11 11 11 11 11
14 14 14 13 14 14 14 14 14 14 14 14 14 14 14 14 14 13 13 13 13 13 13 13 13 13 13 13 12 12 12 12 11 11 11 11 11 11 11 11 11 11 11 10
13 13 13 13 13 13 13 14 14 14 14 14 13 13 13 13 13 13 13 13 13 13 13 13 13 13 12 12 12 12 12 12 11 11 11 11 11 11 10 10 10 10 10 10
13 13 13 13 13 13 13 13 13 13 13 13 13 13 13 13 13 13 13 13 13 12 12 12 12 12 12 12 12 12 12 11 11 11 11 11 11 10 10 10 10 10 10 10
12 13 13 13 12 13 13 13 13 13 13 13 13 13 13 13 13 13 12 12 12 12 12 12 12 12 12 11 11 11 11 11 11 11 10 10 10 10 10 10 10 9 9 9
12 12 12 12 12 12 12 12 12 13 13 13 13 12 12 12 12 12 12 12 12 12 12 12 11 11 11 11 11 11 11 10 10 10 10 10 9 9 9 9 9 9 9 9
12 12 12 12 12 12 12 12 12 12 12 12 12 12 12 12 12 12 12 12 11 11 11 11 11 11 11 11 11 10 10 10 10 10 9 9 9 9 9 9 9 9 9 9
12 12 12 12 12 12 12 12 12 12 12 12 12 12 12 12 11 11 11 11 11 11 11 11 11 11 11 10 10 10 10 10 10 9 9 9 9 9 9 9 9 9 8 8
Wind_Speed
4 3 3 3 4 5 6 8 8 8 7 9 8 7 7 6 6 6 6 6 6 5 4 4 4 4 4 4 4 4 5 4 3 2 2 2 2 1 1 1 1 0 0 1
1 1 1 1 2 4 4 4 5 4 6 5 3 3 5 6 8 8 8 7 6 5 5 5 5 5 4 4 4 4 4 3 3 2 2 2 1 1 1 0 0 0 0 1
2 3 2 3 4 4 3 4 5 6 6 2 2 5 7 8 9 9 8 7 7 7 6 6 5 5 5 5 4 4 3 3 3 3 2 1 2 2 1 1 0 0 0 1
2 2 4 7 3 3 3 2 2 3 3 4 5 4 3 4 7 7 7 7 6 6 5 5 5 5 4 4 4 4 3 2 3 3 2 2 2 2 1 1 1 1 1 1
4 3 4 5 2 1 2 3 2 3 2 2 4 4 2 1 4 6 7 6 6 6 5 5 5 5 5 4 4 4 3 3 3 3 3 3 3 2 2 1 1 1 1 1
4 4 6 6 4 2 3 3 2 3 4 5 5 3 3 3 4 4 5 5 5 5 5 6 5 6 6 5 4 5 5 4 3 3 4 4 4 3 2 2 2 1 1 1
4 4 5 4 6 1 3 6 3 3 5 6 5 4 3 3 4 5 5 4 5 5 5 5 6 6 6 5 5 5 3 3 3 3 4 4 3 2 2 2 1 0 1 2
4 3 5 5 3 2 5 3 1 2 3 5 3 3 3 4 4 5 5 4 4 4 3 3 5 6 5 4 3 2 3 3 3 2 3 3 3 2 2 2 1 1 1 2
5 5 3 3 3 4 2 2 1 2 2 5 4 3 3 4 4 4 4 4 4 4 3 2 3 5 5 3 3 3 3 2 2 2 1 2 3 3 2 2 2 2 2 2
1 2 3 4 3 3 2 1 1 1 3 4 4 4 4 5 4 4 4 4 4 5 4 2 2 3 3 3 3 3 3 2 2 2 1 1 2 3 3 3 3 2 2 3
2 4 4 4 3 3 3 3 4 3 2 4 5 4 4 5 5 5 4 3 4 5 4 3 3 2 2 3 4 3 3 2 2 2 3 2 2 2 3 3 4 4 3 3
4 5 3 4 3 3 2 2 2 2 2 2 3 5 4 4 4 4 4 4 4 4 4 3 3 2 2 3 4 4 3 2 2 2 2 2 2 1 1 2 3 4 5 4
4 2 3 3 3 2 1 0 1 1 2 2 1 3 4 4 4 4 4 4 5 4 4 3 3 2 2 3 4 4 4 3 3 2 3 2 2 3 2 2 2 2 3 4
2 1 1 2 3 3 1 0 2 2 2 2 2 2 3 3 3 3 3 4 4 4 3 3 2 3 3 3 4 4 3 3 3 3 3 3 3 3 3 2 2 3 3 3
2 1 3 3 2 2 1 1 2 1 1 1 1 2 3 3 3 3 3 3 3 3 3 3 2 3 2 3 4 4 4 3 3 3 3 3 3 3 3 3 3 2 2 3
3 1 1 1 1 2 1 0 1 2 2 2 2 2 2 3 3 2 2 3 4 4 3 3 3 3 3 4 4 4 4 5 4 3 3 3 3 3 3 3 3 3 3 3
1 2 2 2 2 2 2 2 3 3 2 2 2 2 2 3 2 2 3 3 4 4 3 3 3 3 3 4 4 3 3 3 4 3 3 4 3 4 4 4 4 4 4 4
5 5 4 4 4 3 3 3 2 2 2 3 1 2 2 3 3 3 3 2 1 1 2 3 3 3 3 4 4 3 3 3 3 4 4 3 3 4 4 4 4 4 3 3
3 3 3 3 4 4 4 3 3 2 2 1 2 3 3 3 3 2 2 2 3 3 4 3 3 3 4 4 4 3 4 3 3 3 3 4 3 3 4 4 4 3 3 2
2 2 2 2 2 2 3 2 2 1 1 2 3 2 2 1 2 2 2 3 4 4 4 3 3 3 4 4 4 3 4 4 4 4 3 3 3 3 3 3 3 3 3 3
2 1 1 1 2 2 3 2 3 3 2 3 3 4 3 2 2 3 2 3 4 3 3 3 3 3 3 3 4 3 4 4 4 4 4 3 3 3 3 3 3 3 3 3
2 1 1 1 1 2 2 1 1 2 2 2 2 3 2 2 1 1 2 3 4 3 2 2 2 3 3 3 3 3 4 4 4 4 3 3 3 3 3 3 3 3 3 3
2 1 1 1 1 1 2 2 1 1 2 3 3 3 3 2 2 2 2 3 2 2 1 2 2 2 2 2 2 3 3 3 3 3 3 3 3 3 3 3 3 3 3 3
2 1 1 1 0 1 2 3 2 1 1 1 2 2 3 2 2 2 3 3 2 2 1 2 2 2 2 1 2 2 3 3 3 3 3 3 3 2 2 2 3 3 3 4
2 2 1 0 0 1 2 2 2 2 1 1 1 1 2 2 2 2 1 2 2 1 1 1 1 1 1 1 2 2 2 2 3 3 3 2 2 2 2 2 2 2 2 3
2 2 1 2 2 2 1 1 1 2 1 1 1 1 1 0 1 1 0 1 1 0 0 0 0 0 1 1 1 1 1 2 2 2 2 2 2 2 2 2 3 2 3 3
2 2 1 1 1 1 1 1 1 2 1 1 1 1 0 1 1 1 1 0 0 0 0 0 0 0 0 1 1 1 1 1 2 2 2 2 2 2 2 2 2 2 2 2
Wind_Direction
224 226 186 200 198 180 181 185 193 230 230 242 224 209 199 185 167 159 161 165 167 164 162 158 150 147 149 152 150 150 147 149 161 166 155 150 143 147 150 154 168 192 319 321
314 315 154 192 240 196 207 193 211 236 257 252 217 167 170 176 173 171 174 176 174 170 169 171 169 165 158 157 156 149 150 155 154 139 133 137 138 151 143 149 141 99 292 297
243 308 45 270 244 208 206 205 184 214 236 194 166 185 190 186 181 183 179 174 175 180 182 182 177 168 168 168 153 145 148 153 153 149 143 157 159 144 166 183 156 111 294 313
142 84 221 246 262 192 192 246 221 230 228 196 200 192 175 179 183 187 180 174 175 174 175 175 167 162 157 156 151 151 155 164 165 154 157 172 162 177 209 200 195 206 254 277
132 183 268 293 288 160 174 271 243 199 191 154 124 84 21 200 184 189 183 175 174 171 167 164 164 159 147 150 152 161 180 191 187 173 173 179 189 200 202 194 231 237 253 263
133 165 222 247 293 302 124 281 281 173 173 156 127 144 238 207 168 156 153 158 158 150 144 152 161 150 147 159 166 191 200 199 189 184 183 191 199 203 196 191 206 221 279 283
155 198 249 282 305 21 161 249 277 186 177 164 170 195 199 160 152 150 146 146 143 145 153 160 155 149 157 168 191 204 192 182 186 191 191 191 189 184 174 174 178 234 280 289
146 182 250 329 9 161 229 282 250 174 166 156 146 116 126 133 136 132 128 131 136 141 147 144 144 149 164 188 197 169 162 171 187 193 193 178 169 173 158 152 160 262 283 303
186 207 260 298 270 283 263 264 263 160 153 139 130 133 136 133 137 137 133 140 137 141 138 132 150 159 172 192 159 145 152 171 185 192 191 172 168 169 161 162 184 229 250 269
274 275 294 305 314 337 340 297 317 161 152 141 140 145 145 142 150 146 143 150 145 141 148 161 152 157 176 172 151 150 164 184 178 176 193 186 179 177 181 199 208 220 237 258
264 282 316 327 334 336 355 22 32 54 94 138 136 150 161 159 167 163 152 152 155 155 161 174 166 169 172 160 150 159 173 184 187 187 187 194 201 209 207 218 206 204 221 230
226 231 208 263 292 322 349 19 47 79 88 121 151 163 158 155 158 153 155 156 155 158 166 173 165 173 177 164 159 161 172 182 186 183 184 187 191 271 282 230 224 219 221 224
228 237 216 249 279 285 269 324 67 126 155 153 137 143 142 142 149 147 152 160 168 172 172 169 165 187 196 170 162 171 182 189 190 188 189 192 195 206 246 310 324 269 242 237
233 191 254 261 262 272 258 96 89 78 80 131 142 132 131 128 137 145 172 196 180 166 165 166 175 213 208 175 170 177 181 190 191 198 199 203 210 216 216 222 264 294 295 266
307 239 228 266 299 313 337 86 91 85 83 87 133 140 141 153 176 191 199 193 164 156 171 180 203 241 209 172 172 181 188 202 206 206 207 210 213 217 224 225 230 250 284 291
307 327 270 256 279 295 328 34 194 223 209 187 181 186 175 173 184 194 195 183 173 186 200 199 223 236 197 180 180 190 203 211 208 208 212 216 215 218 222 223 225 232 243 254
239 269 257 258 261 264 250 241 229 242 244 220 212 200 154 136 152 192 206 205 198 204 203 203 230 235 201 192 189 196 205 213 211 212 217 222 225 227 226 223 227 234 245 244
234 235 237 232 226 236 256 263 254 244 245 247 220 154 153 162 191 215 213 195 197 264 250 229 224 218 211 204 197 196 201 212 214 217 221 223 226 229 230 231 234 241 255 253
265 258 258 244 233 227 235 244 248 244 240 202 162 178 195 191 191 210 197 188 208 242 262 251 234 217 216 215 205 199 204 213 222 224 221 222 228 229 228 229 230 234 232 229
274 268 262 255 251 229 231 230 216 205 199 172 162 164 184 212 199 194 196 223 238 242 246 238 224 224 219 215 206 202 206 212 221 224 220 222 226 229 225 221 220 223 225 228
282 278 267 267 270 260 251 232 204 206 207 180 180 195 207 215 198 181 189 252 276 266 253 237 229 231 221 211 209 210 212 215 217 216 215 216 219 221 224 227 227 232 234 237
292 279 269 270 279 290 288 276 236 214 201 192 190 188 189 201 201 199 226 238 265 271 254 234 229 227 222 212 207 211 215 216 218 215 214 213 214 220 231 237 237 238 243 244
315 305 296 273 261 295 324 339 309 218 203 203 198 194 194 199 195 193 256 268 264 261 247 242 239 228 224 206 206 213 217 218 220 219 218 216 216 220 228 237 240 240 243 245
326 321 311 317 19 36 343 321 323 307 251 237 232 213 194 192 228 235 233 253 262 259 252 251 234 232 224 202 208 220 224 220 217 219 219 218 220 225 231 238 244 247 245 247
305 296 311 22 240 257 270 303 343 355 342 320 305 274 237 208 210 241 248 243 239 221 243 261 246 223 191 206 223 228 224 223 220 214 208 205 206 213 226 239 242 244 249 254
302 285 264 239 235 238 235 233 280 289 280 291 304 288 266 197 171 183 246 264 261 233 192 270 212 170 177 204 227 234 232 223 216 213 206 205 213 224 237 246 253 255 256 259
315 312 313 319 301 250 219 185 219 270 271 245 276 301 327 82 114 129 140 163 344 353 351 346 354 36 182 232 248 259 252 238 222 210 207 212 221 235 249 260 267 263 259 263
Height
1475 1471 1471 1472 1473 1476 1480 1484 1490 1484 1482 1473 1469 1469 1470 1471 1473 1476 1478 1480 1482 1485 1487 1489 1492 1494 1495 1497 1498 1499 1500 1501 1501 1502 1503 1504 1504 1504 1504 1504 1504 1503 1503 1502
1475 1470 1470 1472 1471 1472 1474 1475 1478 1477 1476 1466 1466 1468 1469 1470 1472 1474 1476 1479 1481 1484 1487 1488 1491 1492 1494 1495 1497 1498 1499 1499 1500 1501 1502 1502 1502 1503 1503 1503 1503 1502 1501 1501
1485 1476 1473 1481 1472 1471 1470 1469 1472 1475 1470 1466 1467 1467 1467 1469 1470 1472 1474 1477 1480 1483 1485 1487 1489 1491 1493 1494 1495 1497 1498 1498 1499 1499 1500 1501 1501 1502 1502 1502 1501 1501 1500 1499
1489 1484 1492 1478 1464 1464 1467 1466 1466 1465 1465 1465 1465 1466 1467 1469 1470 1471 1474 1476 1479 1481 1484 1486 1488 1490 1491 1493 1494 1494 1496 1497 1497 1498 1498 1499 1500 1500 1501 1500 1499 1499 1498 1497
1492 1493 1486 1473 1464 1464 1468 1468 1463 1464 1463 1464 1465 1467 1469 1469 1470 1471 1473 1475 1478 1480 1482 1484 1487 1488 1489 1491 1492 1493 1494 1495 1495 1496 1497 1497 1498 1498 1498 1498 1498 1497 1496 1496
1490 1490 1492 1475 1463 1461 1465 1470 1462 1461 1462 1463 1465 1471 1470 1468 1470 1471 1473 1475 1477 1478 1480 1483 1485 1486 1488 1489 1490 1491 1492 1493 1494 1495 1495 1496 1496 1496 1497 1496 1496 1495 1494 1494
1487 1487 1480 1467 1463 1462 1475 1471 1461 1460 1461 1462 1464 1466 1467 1467 1469 1470 1472 1474 1476 1478 1479 1481 1484 1485 1486 1488 1489 1490 1491 1491 1492 1493 1494 1494 1495 1495 1495 1495 1494 1493 1493 1493
1488 1488 1483 1467 1464 1467 1467 1461 1460 1460 1460 1461 1462 1464 1465 1466 1468 1470 1472 1475 1476 1478 1479 1481 1482 1484 1485 1486 1487 1489 1489 1490 1490 1491 1492 1492 1493 1493 1493 1493 1492 1492 1492 1491
1479 1479 1471 1467 1466 1464 1463 1461 1460 1459 1460 1461 1462 1464 1465 1466 1468 1470 1471 1474 1476 1478 1480 1480 1482 1483 1484 1485 1486 1487 1488 1488 1489 1490 1490 1490 1491 1491 1491 1490 1490 1490 1489 1488
1474 1470 1468 1467 1465 1463 1462 1461 1460 1461 1461 1462 1463 1464 1465 1467 1469 1470 1472 1474 1476 1477 1479 1480 1481 1482 1483 1484 1484 1485 1486 1486 1487 1487 1488 1488 1488 1488 1488 1488 1488 1487 1487 1486
1473 1469 1467 1465 1464 1464 1462 1461 1461 1461 1462 1463 1464 1465 1466 1467 1469 1470 1471 1473 1475 1476 1477 1478 1480 1481 1482 1482 1483 1483 1483 1484 1485 1485 1485 1486 1486 1486 1486 1486 1486 1486 1485 1484
1471 1467 1467 1465 1465 1464 1463 1462 1462 1462 1463 1464 1464 1464 1465 1466 1468 1469 1471 1472 1474 1475 1476 1477 1478 1479 1480 1480 1480 1481 1481 1482 1482 1482 1483 1483 1483 1484 1483 1484 1484 1484 1484 1483
1465 1465 1465 1464 1464 1464 1463 1462 1463 1463 1463 1464 1464 1465 1465 1466 1468 1469 1470 1471 1473 1474 1475 1476 1477 1477 1478 1478 1478 1479 1479 1479 1480 1480 1480 1480 1481 1481 1480 1481 1481 1481 1481 1480
1463 1464 1464 1463 1463 1463 1463 1463 1463 1463 1464 1464 1465 1465 1466 1466 1467 1468 1469 1471 1472 1473 1474 1474 1475 1476 1476 1476 1476 1477 1477 1477 1478 1478 1478 1478 1478 1478 1478 1478 1478 1478 1478 1478
1462 1463 1463 1462 1462 1462 1462 1463 1463 1463 1463 1464 1464 1465 1465 1466 1466 1467 1469 1470 1470 1471 1472 1473 1473 1473 1474 1474 1474 1474 1475 1475 1475 1475 1475 1476 1476 1476 1476 1476 1476 1475 1475 1475
1461 1461 1461 1461 1461 1461 1461 1461 1461 1462 1462 1462 1463 1464 1464 1465 1466 1467 1468 1468 1469 1469 1470 1470 1471 1471 1471 1471 1471 1471 1472 1472 1472 1473 1473 1473 1473 1473 1473 1473 1473 1473 1473 1473
1460 1459 1459 1459 1459 1460 1460 1461 1461 1460 1460 1460 1460 1461 1462 1463 1465 1466 1466 1467 1467 1468 1468 1468 1469 1469 1469 1469 1469 1469 1469 1469 1470 1470 1470 1470 1470 1470 1470 1470 1470 1471 1471 1471
1458 1458 1458 1458 1458 1458 1458 1459 1459 1459 1458 1458 1459 1459 1460 1461 1462 1464 1465 1465 1465 1466 1466 1466 1466 1467 1467 1467 1467 1466 1467 1467 1467 1467 1467 1467 1467 1467 1467 1467 1468 1468 1468 1468
1456 1456 1456 1456 1456 1456 1456 1457 1456 1456 1456 1457 1457 1457 1459 1459 1460 1462 1463 1463 1463 1463 1463 1464 1464 1464 1464 1464 1464 1464 1464 1464 1464 1464 1464 1464 1464 1464 1464 1465 1465 1465 1465 1465
1454 1454 1454 1454 1455 1455 1455 1455 1455 1455 1455 1455 1455 1456 1456 1457 1459 1460 1460 1461 1461 1461 1461 1461 1461 1461 1461 1461 1461 1461 1461 1461 1461 1461 1461 1461 1461 1461 1461 1461 1461 1462 1462 1462
1453 1453 1453 1453 1453 1453 1453 1453 1453 1453 1453 1453 1453 1453 1454 1455 1456 1457 1458 1458 1459 1459 1459 1458 1458 1458 1458 1459 1459 1459 1458 1458 1458 1458 1458 1458 1458 1458 1458 1458 1458 1459 1459 1459
1451 1451 1451 1452 1452 1451 1451 1451 1451 1451 1451 1451 1452 1452 1452 1453 1454 1455 1456 1456 1456 1457 1456 1455 1455 1455 1455 1455 1455 1455 1455 1455 1455 1455 1455 1455 1455 1455 1455 1455 1455 1455 1455 1455
1451 1450 1450 1450 1450 1450 1450 1449 1449 1449 1449 1450 1450 1450 1450 1451 1452 1453 1453 1454 1454 1454 1453 1453 1453 1453 1453 1452 1452 1452 1452 1452 1452 1451 1451 1451 1452 1452 1452 1452 1452 1452 1452 1452
1450 1449 1449 1449 1449 1449 1448 1448 1449 1449 1449 1449 1449 1449 1449 1449 1450 1451 1452 1452 1452 1452 1451 1451 1451 1450 1450 1450 1449 1449 1449 1449 1449 1448 1448 1448 1448 1449 1449 1448 1448 1448 1448 1448
1449 1448 1448 1447 1447 1447 1447 1447 1448 1448 1448 1448 1448 1448 1448 1449 1449 1449 1450 1450 1450 1449 1449 1449 1448 1448 1448 1447 1447 1447 1446 1446 1446 1445 1445 1445 1445 1446 1446 1445 1445 1445 1444 1444
1447 1447 1446 1446 1446 1446 1446 1446 1446 1446 1446 1446 1447 1447 1447 1447 1448 1448 1448 1448 1448 1447 1446 1446 1446 1446 1445 1445 1445 1444 1444 1443 1443 1443 1443 1443 1443 1443 1443 1443 1442 1442 1441 1441
1446 1446 1445 1445 1445 1445 1445 1445 1445 1445 1445 1445 1445 1445 1445 1445 1446 1446 1446 1446 1446 1445 1445 1445 1444 1444 1444 1443 1443 1442 1442 1442 1441 1441 1440 1441 1441 1440 1440 1440 1439 1439 1438 1437